GEFSNGP_con_maxscp_198.txt.gz
SCP
1 1 1 1 1 1 0 0 0 0 1 1 1 2 3 3 3 3 4 5 6 7 7 5 4 4 4 3 3 3 2 2 2 2 2 2 2 2 2 2 2 2 2 2
1 1 1 1 1 1 1 0 0 0 1 1 1 2 3 3 3 4 4 5 5 6 5 5 4 4 3 3 3 3 2 2 2 2 2 2 2 2 2 2 2 2 2 2
0 0 1 1 1 1 1 1 1 0 1 1 2 2 3 3 4 4 4 5 5 5 4 4 4 4 4 4 3 3 3 2 2 2 2 2 2 2 2 2 2 2 3 3
0 0 0 1 1 1 1 1 1 1 1 2 3 3 3 3 3 4 4 5 5 4 5 5 5 6 5 4 3 3 3 2 2 2 2 2 2 2 3 3 3 3 3 3
0 0 0 0 1 1 1 2 1 1 2 3 4 4 3 3 3 3 4 5 5 5 5 6 6 7 6 5 4 3 2 2 2 2 2 2 2 3 3 3 3 3 3 3
0 0 0 1 1 1 1 2 2 1 2 3 4 3 3 3 3 4 5 4 4 4 5 5 5 6 6 5 4 3 2 2 2 2 2 2 2 3 3 3 3 3 3 2
0 0 0 1 1 1 1 2 2 1 5 7 5 3 3 3 3 4 4 4 3 3 3 3 4 5 6 5 4 3 2 2 2 2 2 2 2 3 3 3 3 3 2 2
0 0 0 1 2 2 1 1 2 2 7 12 7 3 3 3 3 3 3 3 3 3 2 3 3 4 5 4 4 3 2 2 2 2 2 2 2 3 3 3 3 3 2 2
0 0 1 1 2 2 2 2 2 2 5 8 6 3 3 3 3 2 2 2 2 2 2 2 3 4 4 4 3 3 3 2 2 2 2 2 2 2 3 3 3 3 3 3
0 0 1 1 2 2 2 3 3 3 3 3 3 3 3 3 3 2 2 2 2 2 2 2 2 3 4 3 3 3 2 2 2 2 2 2 1 1 2 2 3 4 4 4
0 0 1 1 2 2 2 3 3 3 3 3 3 2 3 3 3 2 2 2 2 2 2 2 2 3 3 3 3 2 2 2 1 1 1 1 1 1 1 1 2 3 3 3
0 0 0 1 1 2 2 2 2 3 3 2 2 2 2 2 2 2 2 2 2 2 2 3 3 3 3 4 3 2 1 1 1 1 1 1 1 1 1 0 1 1 2 2
0 0 0 1 1 2 2 2 2 2 2 2 1 1 1 2 2 2 3 3 3 2 2 3 3 4 4 4 3 2 1 1 1 1 1 1 1 1 1 1 1 0 0 0
0 0 0 1 1 2 2 2 2 1 1 1 1 1 1 1 1 2 3 3 3 2 2 3 3 4 4 4 4 2 1 1 1 1 1 1 1 1 1 1 1 1 0 0
0 0 0 1 1 1 1 1 1 1 1 1 1 1 1 1 1 2 3 3 2 2 2 2 3 3 3 3 3 2 1 1 1 1 1 1 1 1 1 1 1 1 1 1
0 0 0 1 1 1 1 1 1 1 1 1 1 1 1 1 1 1 2 2 2 1 1 1 1 2 2 2 2 1 1 1 1 1 1 1 1 1 1 1 1 1 1 1
0 0 0 1 1 0 1 1 1 1 1 1 1 1 1 1 1 1 1 1 1 1 1 0 1 0 0 1 1 0 0 0 0 0 0 0 0 1 1 1 1 1 1 1
0 0 0 0 0 0 0 0 0 1 1 1 1 1 1 1 0 0 0 0 0 0 0 0 0 0 0 0 0 0 0 0 0 0 0 0 0 0 0 0 0 0 0 0
0 0 0 0 0 0 0 0 0 0 0 1 1 1 1 1 0 0 0 0 0 0 0 0 0 0 0 0 0 0 0 0 0 0 0 0 0 0 0 0 0 0 0 0
0 0 0 0 0 0 0 0 0 0 0 0 0 0 0 0 0 0 0 0 0 0 0 0 0 0 0 0 0 0 0 0 0 0 0 0 0 0 0 0 0 0 0 0
0 0 0 0 0 0 0 0 0 0 0 0 0 0 0 0 0 0 0 0 0 0 0 0 0 0 0 0 0 0 0 0 0 0 0 0 0 0 0 0 0 0 0 0
0 0 0 0 0 0 0 0 0 0 0 0 0 0 0 0 0 0 0 0 0 0 0 0 0 0 0 0 0 0 0 0 0 0 0 0 0 0 0 0 0 0 0 0
0 0 0 0 0 0 0 0 0 0 0 0 0 0 0 0 0 0 0 0 0 0 0 0 0 0 0 0 0 0 0 0 0 0 0 0 0 0 0 0 0 0 0 0
0 0 0 0 0 0 0 0 0 0 0 0 0 0 0 0 0 0 0 0 0 0 0 0 0 0 0 0 0 0 0 0 0 0 0 0 0 0 0 0 0 0 0 0
0 0 0 0 0 0 0 0 0 0 0 0 0 0 0 0 0 0 0 0 0 0 0 0 0 0 0 0 0 0 0 0 0 0 0 0 0 0 0 0 0 0 0 0
0 0 0 0 0 0 0 0 0 0 0 0 0 0 0 0 0 0 0 0 0 0 0 0 0 0 0 0 0 0 0 0 0 0 0 0 0 0 0 0 0 0 0 0
0 0 0 0 0 0 0 0 0 0 0 0 0 0 0 0 0 0 0 0 0 0 0 0 0 0 0 0 0 0 0 0 0 0 0 0 0 0 0 0 0 0 0 0

GEFSNGP_con_maxscp_204.txt.gz
SCP
0 0 0 0 0 0 0 0 0 1 1 1 1 1 1 2 3 4 6 7 6 4 4 4 5 6 6 6 6 6 7 7 5 4 3 3 3 3 4 4 3 2 2 1
0 0 0 0 0 1 1 0 1 1 1 1 2 2 2 2 2 3 5 7 7 5 5 6 7 8 7 7 7 6 7 6 4 4 4 4 4 5 5 4 3 2 2 2
0 0 0 1 1 1 1 1 1 1 1 2 2 2 2 2 2 3 4 6 7 7 8 9 10 9 8 8 7 6 5 4 3 3 3 4 5 6 6 4 3 3 3 3
0 0 0 1 1 1 1 1 1 1 1 1 1 2 2 2 2 3 3 5 6 8 10 10 9 8 7 7 7 6 5 4 3 3 3 3 4 5 5 4 4 4 3 3
0 0 0 1 1 1 1 1 2 2 2 2 2 2 2 2 3 3 4 4 6 7 8 8 7 6 6 7 9 8 7 5 4 3 3 3 3 4 4 4 4 4 3 3
0 0 0 1 1 1 1 2 2 2 3 3 3 2 2 3 3 3 4 4 5 6 6 6 5 5 7 9 11 10 8 6 5 4 4 4 4 4 4 4 4 3 3 3
0 0 1 1 1 1 1 2 2 3 4 4 3 3 3 4 4 4 4 4 5 5 6 6 6 7 9 11 12 10 8 7 6 6 5 5 5 4 4 4 4 4 4 3
0 1 1 1 1 1 2 2 3 4 4 4 4 4 5 5 5 4 4 5 5 5 6 6 6 8 10 11 10 9 8 8 8 7 6 6 6 5 4 4 4 4 4 4
1 1 1 2 2 2 2 2 3 4 4 4 4 4 5 5 5 5 5 5 5 6 6 6 6 8 9 9 8 9 10 10 10 9 8 6 5 4 4 4 4 4 5 5
1 1 1 2 3 3 4 3 3 3 3 4 4 4 4 5 4 4 5 6 6 6 7 7 6 6 7 8 8 9 10 10 10 9 8 6 5 4 4 4 4 4 4 5
1 1 1 2 2 4 6 5 3 3 3 4 4 4 4 4 4 4 5 6 6 6 7 7 6 6 7 8 8 8 8 8 8 7 6 5 4 4 3 3 3 2 3 4
1 1 1 1 1 3 6 6 4 4 4 4 4 4 4 3 3 3 4 5 5 5 6 6 6 6 7 8 8 8 7 7 6 5 4 3 3 3 2 2 1 1 2 2
1 1 1 1 1 3 5 6 5 4 5 4 4 3 3 3 2 3 3 4 4 4 4 5 6 6 6 7 8 8 7 6 5 3 3 2 2 2 1 1 1 1 0 0
1 1 1 1 2 2 4 4 3 3 4 3 3 2 2 2 1 2 2 3 3 3 3 4 5 5 5 6 8 8 7 5 4 2 2 1 1 1 1 1 1 1 1 0
1 1 1 1 2 2 2 2 2 2 2 2 2 2 1 1 1 1 1 2 2 3 3 3 4 4 4 5 6 6 5 3 2 2 1 1 1 1 1 1 1 1 1 1
1 1 1 1 1 1 1 1 1 1 1 1 1 1 1 1 1 1 1 1 2 2 3 3 3 3 3 3 3 3 2 2 1 1 1 1 1 1 1 1 2 2 2 2
1 1 1 1 1 1 1 1 1 1 1 1 1 1 1 1 1 1 1 1 1 2 2 2 2 2 2 2 2 2 1 1 1 1 1 1 2 2 2 2 2 3 3 2
1 1 1 1 1 1 1 1 1 1 1 1 1 1 1 1 1 1 1 1 1 1 1 2 2 2 1 1 1 1 1 1 1 1 1 2 2 2 2 2 2 2 2 2
1 1 1 2 2 1 1 1 1 0 0 1 1 1 1 1 1 1 1 1 1 1 1 1 1 1 1 1 1 1 1 1 1 1 1 1 1 1 2 2 2 2 2 1
1 1 2 2 2 1 1 1 0 0 1 1 1 1 1 1 1 1 1 1 1 1 0 0 0 0 1 0 1 1 1 1 1 1 1 1 1 1 1 1 1 1 1 1
1 1 2 2 1 1 1 0 0 0 1 1 1 1 1 1 1 1 1 1 1 0 0 0 0 0 0 0 0 0 1 1 1 1 1 1 1 1 1 1 1 1 0 0
1 1 1 1 1 0 0 0 0 0 0 0 0 1 1 1 1 1 1 1 0 0 0 0 0 0 0 0 0 0 0 1 1 1 1 1 1 1 1 1 0 0 0 0
1 1 1 1 0 0 0 0 0 0 0 0 0 0 1 1 1 1 0 0 0 0 0 0 0 0 0 0 0 0 0 0 1 1 1 1 1 1 1 0 0 0 0 0
1 1 1 0 0 0 0 0 0 0 0 0 0 0 0 0 0 0 0 0 0 0 0 0 0 0 0 0 0 0 0 0 0 1 1 1 1 1 1 0 0 0 0 0
0 0 0 0 0 0 0 0 0 0 0 0 0 0 0 0 0 0 0 0 0 0 0 0 0 0 0 0 0 0 0 0 0 0 1 1 1 0 0 0 0 0 0 0
0 0 0 0 0 0 0 0 0 0 0 0 0 0 0 0 0 0 0 0 0 0 0 0 0 0 0 0 0 0 0 0 0 0 0 0 0 0 0 0 0 0 0 0
0 0 0 0 0 1 1 1 0 0 0 0 0 0 0 0 0 0 0 0 0 0 0 0 0 0 0 0 0 0 0 0 0 0 0 0 0 0 0 0 0 0 0 0

GEFSNGP_con_maxscp_210.txt.gz
SCP
0 0 0 0 0 0 0 0 1 2 3 2 3 3 4 3 3 3 3 3 5 7 9 10 11 11 12 12 11 10 9 8 8 7 6 5 4 4 4 4 4 4 4 3
0 0 0 0 0 0 0 1 2 3 3 3 3 4 4 4 3 3 3 4 5 8 10 11 12 13 14 14 12 10 9 8 7 7 6 5 4 4 4 4 5 5 4 4
0 0 0 0 1 1 2 3 3 3 3 3 3 3 4 5 6 6 6 6 6 8 10 11 13 14 14 13 11 9 8 7 7 6 5 4 4 5 5 5 5 5 5 5
1 1 1 1 2 3 4 5 4 3 3 3 3 4 6 8 9 10 12 12 11 10 10 11 12 13 12 10 9 8 8 7 6 6 5 5 6 6 6 6 6 5 5 5
1 1 1 2 2 3 4 4 4 4 4 4 3 5 9 11 11 12 14 15 15 14 13 13 13 12 11 9 8 9 9 8 7 6 6 6 7 8 7 7 6 5 5 5
1 1 1 2 2 2 3 3 3 4 6 5 5 6 9 10 11 13 13 14 15 15 14 13 12 11 10 9 8 9 10 10 8 7 7 7 8 8 7 7 6 5 5 5
2 2 2 2 2 2 3 4 4 5 6 6 6 6 7 7 10 13 14 14 14 14 12 11 11 10 10 9 9 11 13 12 10 9 8 9 10 8 7 6 6 6 6 6
2 2 2 3 3 4 5 5 5 5 5 6 6 6 5 7 11 15 15 14 13 12 11 10 10 11 12 11 11 14 15 13 11 9 8 10 12 10 8 7 7 7 7 7
2 3 3 4 5 5 6 6 5 5 5 5 6 7 7 9 12 14 13 12 11 11 11 9 9 10 11 13 14 16 15 13 10 9 8 9 10 10 8 8 7 8 7 7
3 4 4 4 5 5 5 5 5 4 4 6 7 8 9 9 10 10 9 9 9 10 9 8 7 7 9 11 13 13 12 11 10 9 7 6 6 7 7 6 7 7 7 5
4 4 4 4 4 4 4 4 4 3 4 6 8 8 7 7 7 7 7 7 8 8 7 6 6 6 7 8 10 10 10 9 9 8 6 5 4 5 5 5 5 5 5 4
5 4 3 4 4 3 3 3 3 2 3 5 7 6 5 5 5 6 6 6 7 8 7 5 5 5 6 6 7 8 8 7 7 7 6 4 4 4 4 4 3 3 3 3
4 3 3 3 3 3 3 3 2 2 3 4 5 5 4 4 4 3 4 5 6 8 7 5 4 5 5 5 6 6 6 6 7 7 6 4 3 3 3 3 2 2 1 1
3 2 2 2 2 3 3 3 3 2 3 4 4 4 3 3 2 2 2 3 5 6 6 5 4 4 5 5 5 6 6 6 7 7 6 4 3 2 2 2 2 2 2 1
2 2 2 2 3 4 5 4 3 2 2 3 3 3 2 2 2 2 2 2 3 4 4 3 3 4 5 4 4 5 5 6 7 7 6 4 2 1 1 2 2 2 2 2
1 1 1 2 3 5 5 4 3 2 2 2 2 2 2 2 2 2 2 2 2 2 2 2 2 4 4 4 4 5 4 4 4 5 4 3 2 1 1 2 2 3 3 3
1 1 1 2 3 4 5 4 3 2 2 2 2 2 2 2 2 2 1 1 1 1 1 1 2 3 3 3 3 4 4 3 2 3 3 2 2 2 3 3 4 5 5 4
1 1 1 2 3 4 4 3 3 2 2 2 2 2 2 2 2 2 1 1 1 1 1 1 1 2 2 2 2 3 3 3 3 2 2 2 2 3 3 4 5 6 5 4
2 2 2 3 3 4 4 3 2 2 2 1 1 1 2 2 2 2 2 1 1 1 1 1 1 1 1 1 1 2 2 3 3 3 2 2 2 2 2 3 4 5 5 4
2 2 3 4 4 4 3 2 1 1 1 1 1 2 2 3 2 2 2 1 1 2 2 2 1 1 1 1 1 1 1 2 3 3 3 2 2 2 2 3 4 4 4 3
2 3 4 5 5 4 3 2 1 1 1 1 1 2 2 2 2 1 1 1 1 2 2 2 1 1 1 1 1 1 1 1 2 3 3 2 2 3 3 4 4 4 2 2
2 2 3 4 4 3 2 1 1 1 1 1 1 1 1 1 1 1 1 1 1 1 1 1 1 1 0 0 0 0 1 1 1 2 2 2 2 3 3 4 3 2 1 1
2 2 2 2 2 2 1 1 1 1 1 1 1 1 1 1 1 1 1 1 1 1 1 0 0 0 0 0 0 0 0 0 1 1 1 2 2 2 3 3 2 1 0 0
2 2 1 1 1 1 1 1 1 1 1 0 0 0 0 1 1 1 1 1 1 0 0 0 0 0 0 0 0 0 0 0 1 1 1 2 2 2 2 2 1 0 0 0
1 1 1 1 1 1 1 1 1 1 0 0 0 0 0 1 1 1 1 1 0 0 0 0 0 0 0 0 0 0 0 0 0 1 1 2 2 2 1 1 0 0 0 0
1 1 1 1 1 1 1 1 0 0 0 0 0 0 0 0 0 1 1 0 0 0 0 0 0 0 0 0 0 0 0 0 0 1 1 1 1 1 0 0 0 0 0 0
1 1 1 1 1 0 0 0 0 0 0 0 0 0 0 0 0 0 0 0 0 0 0 0 0 0 0 0 0 0 0 0 0 0 0 0 0 0 0 0 0 0 0 0

GEFSNGP_con_maxscp_216.txt.gz
SCP
0 0 0 0 0 0 0 1 1 3 6 7 7 7 7 7 7 7 7 7 7 7 6 6 5 5 6 6 6 7 6 5 4 3 2 2 2 1 1 1 1 1 1 1
0 0 0 0 0 0 0 1 2 4 6 7 7 7 7 8 8 8 8 8 8 8 8 7 6 6 6 6 7 7 7 5 5 4 3 2 2 1 1 1 1 1 1 1
0 0 0 0 0 0 1 2 3 5 6 7 7 8 8 8 8 9 10 10 10 9 10 10 9 9 9 9 9 8 7 6 5 5 4 3 2 2 2 2 2 2 2 2
0 0 0 1 1 1 2 3 5 6 6 6 7 8 9 9 9 9 11 11 10 10 10 11 12 13 12 10 9 8 7 6 6 6 5 4 3 3 2 2 2 2 2 2
0 0 1 1 2 3 3 4 5 5 5 5 7 9 10 10 10 10 10 10 10 9 8 9 11 13 12 9 8 6 5 5 6 6 6 5 5 4 3 3 2 2 2 3
0 1 1 1 2 3 4 4 4 4 4 4 5 7 8 8 9 9 8 9 9 9 8 8 8 9 22 29 19 5 5 5 6 7 7 7 7 5 4 4 3 3 3 3
0 1 1 2 2 2 3 3 3 3 4 4 5 5 5 6 7 8 8 9 10 10 9 8 7 6 28 49 27 5 5 6 7 8 9 9 8 6 5 4 4 4 3 3
1 1 1 2 2 2 2 3 3 4 5 5 6 5 5 5 6 8 10 11 11 10 8 7 6 6 18 26 17 5 6 7 8 9 10 10 8 6 5 5 4 4 3 2
2 2 2 2 2 2 3 3 4 4 5 6 6 6 6 6 7 10 13 13 11 9 7 6 5 5 4 4 4 5 6 7 7 8 8 7 6 5 4 4 4 3 2 2
2 2 2 2 3 3 3 3 4 4 5 5 5 6 7 7 8 11 14 15 12 10 7 6 5 5 5 4 4 5 5 5 5 6 7 6 5 4 4 4 3 3 2 2
1 2 2 2 3 4 4 3 3 3 4 4 4 5 6 7 8 10 13 14 13 10 8 6 5 5 4 4 4 4 4 4 4 4 6 6 4 3 3 3 3 3 3 3
1 1 1 2 2 3 4 4 3 2 3 3 3 4 4 5 7 8 10 11 10 9 7 5 4 3 3 3 4 4 4 3 3 3 4 4 3 3 3 3 3 3 3 2
1 1 2 2 2 3 4 4 3 2 2 2 3 3 3 4 5 6 7 7 6 5 4 3 2 2 1 2 3 3 3 3 2 2 2 2 2 3 2 2 2 2 2 1
1 1 1 2 2 2 3 4 3 2 2 2 2 2 2 3 3 3 4 3 3 2 2 1 1 1 1 1 2 2 3 2 2 2 1 1 2 2 2 2 2 2 1 1
1 1 1 2 2 2 3 3 3 2 1 1 2 2 2 2 2 2 2 1 1 1 1 1 0 1 1 1 2 2 2 2 2 1 1 1 1 1 2 2 2 2 2 2
0 1 1 1 1 2 2 2 2 1 1 1 1 1 1 1 1 1 1 1 1 1 0 0 0 0 0 1 1 2 2 2 2 1 1 1 0 1 1 1 2 2 2 2
0 0 1 1 1 1 1 1 1 1 1 1 1 1 1 1 1 1 1 1 1 0 0 0 0 0 0 0 1 1 1 1 1 1 1 1 0 0 0 0 1 1 1 1
0 0 0 1 1 1 1 1 1 1 1 1 1 1 1 1 0 0 0 0 0 0 0 0 0 0 0 0 1 1 1 1 1 1 1 1 1 0 0 0 0 0 1 1
0 0 0 0 0 0 0 0 0 0 1 1 1 1 1 1 0 0 0 0 0 0 0 0 0 0 0 0 0 1 1 1 1 0 0 0 1 1 0 0 0 1 1 1
1 0 0 0 0 0 0 0 0 0 0 1 1 1 0 0 0 0 0 0 0 0 0 0 0 0 0 0 0 0 0 0 0 0 0 0 0 1 1 1 1 1 1 1
0 0 0 0 0 0 0 0 0 0 0 0 0 0 0 0 0 0 0 0 0 0 0 0 1 1 1 1 0 0 0 0 0 0 0 0 0 1 1 1 1 1 1 0
0 0 0 0 0 0 0 0 0 0 0 0 0 0 0 0 0 0 0 0 0 0 0 1 1 1 1 0 0 0 0 0 0 0 0 0 0 0 1 1 1 1 0 0
0 0 0 0 0 0 0 0 0 0 0 0 0 0 0 0 0 0 0 1 1 1 1 1 1 1 0 0 0 0 0 0 0 0 0 0 0 0 1 1 1 0 0 0
0 0 0 0 0 0 0 0 0 0 0 0 0 0 0 0 0 0 0 0 1 1 1 0 0 0 0 0 0 0 0 0 0 0 0 0 0 0 1 1 0 0 0 0
0 0 0 0 0 0 0 0 0 0 0 0 0 0 0 0 0 0 0 0 0 0 0 0 0 0 0 0 0 0 0 0 0 0 0 0 0 0 0 0 0 0 0 0
1 1 0 0 0 0 0 0 0 0 0 0 0 0 0 0 0 0 0 0 0 0 0 0 0 0 0 0 0 0 0 0 0 0 0 0 0 0 0 0 0 0 0 0
0 0 0 0 0 0 0 0 0 0 0 0 0 0 0 0 0 0 0 0 0 0 0 0 0 0 0 0 0 0 0 0 0 0 0 0 0 0 0 0 0 0 0 0

GEFSNGP_con_maxscp_222.txt.gz
SCP
0 0 0 0 0 0 0 0 0 1 1 2 2 3 3 3 3 3 3 4 4 4 4 3 3 4 4 4 3 3 4 4 4 4 3 3 2 2 2 2 1 1 1 1
0 0 0 0 0 0 0 0 1 1 2 2 3 4 4 4 4 4 4 4 5 4 4 3 3 3 4 4 3 4 4 4 4 4 4 4 3 2 2 2 2 2 1 1
0 0 0 0 0 0 0 1 1 2 2 3 4 5 5 4 4 5 5 5 4 4 4 3 3 4 4 4 3 4 4 4 4 5 5 5 4 4 3 2 2 2 2 2
0 0 0 0 0 0 0 1 1 2 2 4 5 5 5 5 5 5 5 4 4 3 4 4 4 4 4 4 3 3 3 4 4 5 5 5 5 5 4 3 3 2 2 2
0 0 0 0 1 1 1 1 1 2 3 4 4 4 4 5 6 5 4 4 3 3 4 4 4 5 4 4 3 3 3 4 4 4 4 5 5 5 5 4 3 3 3 3
0 0 0 1 1 1 1 1 2 3 3 3 3 3 3 5 5 5 4 4 4 4 4 5 5 5 5 4 4 4 4 4 4 4 4 4 5 5 5 5 4 4 3 3
0 0 1 1 1 1 1 1 2 3 3 3 3 3 3 4 4 4 4 5 5 5 5 5 5 5 5 5 4 4 4 3 3 3 3 4 4 5 6 5 5 4 3 2
0 0 1 1 1 1 1 1 2 3 3 3 3 3 4 4 3 4 5 6 6 6 5 5 5 5 5 4 4 4 4 4 3 3 3 3 4 5 6 6 5 4 3 3
1 1 1 1 1 1 1 1 2 2 3 3 4 4 4 4 4 4 4 5 6 6 5 4 4 4 4 3 3 3 4 4 4 4 4 4 4 4 5 5 5 4 3 3
1 1 1 1 1 1 2 2 2 2 3 4 4 4 4 4 4 4 4 5 6 6 5 5 4 4 3 2 2 2 3 3 3 4 4 4 3 3 4 5 5 4 4 3
1 1 1 1 2 2 2 2 2 2 3 3 4 4 4 4 3 3 4 5 7 7 6 5 5 4 3 2 2 2 2 2 2 2 3 3 2 2 3 3 4 3 3 3
1 1 1 1 1 2 2 2 2 2 2 2 3 4 4 3 3 3 3 4 6 7 7 7 6 5 3 2 2 1 1 1 1 2 2 2 2 2 2 2 2 2 2 2
0 0 0 1 1 2 2 2 2 2 2 2 2 3 3 3 3 3 3 4 5 7 8 7 6 5 3 2 1 1 1 1 1 1 1 1 1 1 1 1 1 1 1 1
0 0 1 1 1 1 1 2 2 2 2 2 2 2 2 2 2 2 3 3 5 6 7 6 5 4 2 2 1 1 1 1 1 1 1 1 1 1 1 1 1 1 1 1
0 0 1 1 1 1 1 2 2 2 2 1 1 1 1 1 2 2 2 3 3 4 4 4 3 2 1 1 1 1 0 0 0 1 1 1 1 1 1 1 1 2 2 2
0 0 0 0 1 1 1 1 2 2 1 1 0 1 1 1 2 3 2 1 2 2 2 2 1 1 1 1 0 0 0 0 0 0 1 1 1 1 1 1 1 2 2 2
1 1 0 0 0 0 1 1 1 1 1 1 0 0 0 1 2 2 2 1 1 1 1 1 0 0 0 0 0 0 0 0 0 0 0 0 0 0 0 1 1 1 1 1
1 1 0 0 0 0 0 0 0 0 0 0 0 0 0 0 1 1 1 0 0 0 0 0 0 0 0 0 0 0 0 0 0 0 0 0 0 0 0 0 1 1 1 1
1 0 0 0 0 0 0 0 0 0 0 0 0 0 0 0 0 0 0 0 0 0 0 0 0 0 0 0 0 0 0 0 0 0 0 0 0 0 0 0 0 1 1 0
0 0 0 0 0 0 0 0 0 0 0 0 0 0 0 0 0 0 0 0 0 0 0 0 0 0 0 0 0 0 0 0 0 0 0 0 0 0 0 0 0 0 1 0
0 0 0 0 0 0 0 0 0 0 0 0 0 0 0 0 0 0 0 0 0 0 0 0 0 0 0 0 0 0 0 0 0 0 0 0 0 0 0 0 0 0 0 0
0 0 0 0 0 0 0 0 0 0 0 0 0 0 0 0 0 0 0 0 0 0 0 0 0 0 0 0 0 0 0 0 0 0 0 0 0 0 0 0 0 0 0 0
0 0 0 0 0 0 0 0 0 0 0 0 0 0 0 0 0 0 0 0 0 0 0 0 0 0 0 0 0 0 1 0 0 0 0 0 0 0 0 0 0 0 0 0
0 0 0 0 0 0 0 0 0 0 0 0 0 0 0 0 0 0 0 0 0 0 0 0 0 0 0 0 0 0 1 0 0 0 0 0 0 0 0 0 0 0 0 0
0 0 0 0 0 0 0 0 0 0 0 0 0 0 0 0 0 0 0 0 0 0 0 0 0 0 0 0 0 0 0 0 0 0 0 0 0 0 0 0 0 0 0 0
0 0 0 0 0 0 0 0 0 0 0 0 0 0 0 0 0 0 0 0 0 0 0 0 0 0 0 0 0 0 0 0 0 0 0 0 0 0 0 0 0 0 0 0
0 0 0 0 0 0 0 0 0 0 0 0 0 0 0 0 0 0 0 0 0 0 0 0 0 0 0 0 0 0 0 0 0 0 0 0 0 0 0 0 0 0 0 0

GEFSNGP_con_maxscp_228.txt.gz
SCP
0 0 0 0 0 0 0 0 0 1 1 2 3 3 4 4 5 4 4 4 5 5 5 5 5 6 7 6 5 5 6 6 8 10 12 12 9 6 4 3 3 3 3 3
0 0 0 0 0 0 0 0 1 1 1 2 3 3 4 4 5 6 6 6 6 6 6 5 6 7 8 8 7 6 6 6 7 9 10 9 7 5 4 4 4 3 4 4
0 0 0 0 0 1 1 1 1 2 2 3 3 3 3 4 5 6 7 7 8 8 7 6 7 9 11 10 9 8 7 6 6 6 7 7 6 5 5 5 5 5 5 5
0 0 0 1 1 1 1 1 2 2 2 3 3 3 3 4 4 5 6 7 8 8 7 6 8 10 12 12 12 10 8 6 5 5 5 6 6 5 5 5 6 7 7 8
0 0 1 1 1 1 1 1 2 2 3 4 4 3 3 4 4 5 6 6 7 7 6 6 6 7 9 11 12 12 10 7 5 4 5 5 5 5 5 5 6 7 8 8
0 0 1 1 1 1 1 1 1 3 4 4 3 3 3 3 4 5 6 6 6 5 5 5 5 5 6 8 9 10 10 8 5 5 5 5 5 4 5 5 6 6 6 6
0 0 1 1 1 1 1 1 2 3 4 4 3 3 3 3 4 5 6 7 6 5 4 5 5 6 7 8 7 7 7 6 5 5 5 5 4 4 5 5 5 4 4 4
0 1 1 1 1 1 2 2 3 4 5 4 4 4 3 4 4 5 6 7 7 6 5 5 6 6 7 8 7 6 5 5 5 5 5 5 5 5 5 4 4 4 4 4
1 1 2 2 3 3 3 3 3 5 5 4 4 4 4 4 4 5 7 7 7 6 6 6 7 7 8 8 7 7 6 6 5 5 5 5 5 5 5 4 4 4 4 4
2 2 2 3 4 5 5 4 4 4 4 4 3 3 3 4 4 5 7 7 6 6 6 6 8 8 8 7 6 5 5 5 4 4 4 4 4 5 5 5 4 4 4 4
2 2 3 3 4 6 6 5 4 4 4 3 3 3 3 3 3 5 7 7 6 5 5 5 6 7 6 5 5 4 4 4 4 3 3 3 3 3 4 4 4 4 4 3
3 3 3 3 5 6 7 6 5 4 3 3 3 3 3 3 3 3 5 7 6 5 5 5 5 6 6 5 5 4 4 3 3 3 3 2 2 2 2 2 2 2 2 2
3 3 3 3 4 5 5 5 4 3 3 3 3 3 2 2 2 2 3 5 6 5 4 4 5 6 6 6 5 5 4 4 3 2 2 1 1 1 1 0 0 1 1 1
3 3 3 3 4 4 4 4 4 3 3 2 2 2 2 2 2 2 2 3 4 5 4 4 4 5 6 6 6 6 5 4 3 2 1 1 1 1 1 1 1 1 1 1
3 3 3 4 4 3 3 3 3 2 2 2 2 2 2 2 2 2 2 2 3 3 3 3 3 4 5 6 6 6 6 5 4 3 2 1 1 1 1 1 1 1 1 1
2 2 3 3 3 3 3 3 2 2 2 2 2 2 2 2 3 2 2 2 2 3 3 3 3 4 5 5 6 6 6 4 3 3 2 2 1 1 1 1 1 1 1 0
2 2 2 2 2 2 2 2 2 1 1 1 2 2 1 2 2 2 2 1 1 2 3 3 3 3 4 4 5 5 4 3 2 2 2 1 1 1 1 1 1 1 1 0
2 2 2 2 1 1 1 2 2 1 1 1 1 1 1 1 1 1 1 1 1 2 3 3 3 3 3 3 3 3 2 1 1 1 1 1 1 1 1 1 1 1 1 1
1 1 2 2 1 1 1 1 1 1 1 1 1 1 1 1 1 1 1 1 1 2 2 1 1 2 2 1 1 1 1 1 1 1 1 1 1 1 1 1 1 1 1 1
1 1 1 1 1 1 1 1 1 1 1 1 1 1 1 1 1 1 1 1 1 1 1 1 1 1 1 0 0 0 0 1 1 1 1 1 0 0 0 0 0 0 0 1
1 1 1 1 1 1 1 1 1 1 1 1 1 1 1 1 1 1 1 1 1 1 1 0 0 0 0 0 0 0 0 1 1 1 1 1 1 1 1 1 0 0 0 0
2 1 1 1 1 1 1 1 1 1 1 1 1 1 1 1 1 0 0 0 0 0 0 0 0 0 0 0 0 0 0 1 1 1 1 1 1 1 1 1 1 0 0 0
2 1 1 1 1 1 1 1 1 1 1 1 1 1 1 1 1 0 0 0 0 0 0 0 0 0 0 0 0 0 0 1 1 1 1 1 1 1 1 1 1 0 0 0
2 1 1 1 1 1 1 1 1 1 1 1 1 1 1 1 1 0 0 0 0 0 0 0 0 0 0 0 0 0 0 1 1 1 1 1 1 1 1 1 1 1 0 0
2 1 1 1 1 1 1 1 1 1 1 1 1 1 1 1 1 0 0 0 0 0 0 0 0 0 0 0 0 0 0 0 1 1 1 2 2 2 2 2 1 0 0 0
2 1 1 1 0 0 0 0 0 0 0 1 1 1 1 1 0 0 0 0 0 0 0 0 0 0 0 0 0 0 0 0 1 1 1 2 2 2 2 2 1 0 0 0
2 1 1 0 0 0 0 0 0 0 0 0 1 1 1 0 0 0 0 0 0 0 0 0 0 0 0 0 0 0 0 0 1 1 1 2 2 2 2 1 1 0 0 0

GEFSNGP_con_maxscp_234.txt.gz
SCP
0 0 0 0 0 0 0 0 1 3 4 4 4 4 6 8 9 10 11 11 9 10 11 12 11 11 11 11 10 10 10 9 8 7 7 6 6 6 5 5 4 4 3 3
0 0 0 0 0 0 0 1 1 3 5 6 5 5 7 10 12 13 13 11 10 11 13 13 11 10 12 13 13 13 12 11 9 8 7 7 7 6 5 5 5 4 4 4
0 0 0 0 0 1 1 2 2 4 5 6 6 5 6 9 12 13 12 12 13 15 18 17 13 11 12 15 15 16 16 14 12 10 9 8 7 6 6 5 5 5 5 5
0 0 0 0 1 1 2 2 2 3 5 6 7 6 6 7 9 10 9 11 14 17 17 16 13 11 11 12 13 15 15 14 13 11 9 8 7 7 7 6 6 6 6 6
1 1 1 1 1 1 2 2 2 3 6 7 8 8 7 7 8 8 8 9 11 12 11 10 9 8 8 8 9 10 10 10 11 10 10 9 8 8 8 8 7 7 6 5
1 1 1 1 1 1 2 2 3 5 8 10 9 8 7 8 9 9 9 8 9 9 9 8 8 8 8 9 9 9 9 10 10 10 9 9 9 8 9 9 8 6 5 4
1 1 1 2 1 2 2 3 4 7 9 10 8 9 10 11 10 10 10 10 11 11 11 10 10 10 10 11 11 11 12 13 12 10 9 9 9 8 8 8 7 5 4 4
1 2 2 3 3 3 4 4 6 8 10 9 9 10 13 13 11 9 9 11 12 13 12 12 11 10 10 11 11 11 11 12 11 10 8 8 8 7 7 7 5 4 4 4
2 3 4 5 5 5 5 5 7 10 11 10 9 11 13 12 9 8 8 10 11 11 11 11 10 10 10 10 10 9 9 8 8 7 7 7 7 6 5 5 5 4 5 5
4 4 5 7 7 5 4 5 8 12 12 10 10 12 13 11 9 8 8 9 9 10 9 9 9 9 9 9 8 8 7 6 6 6 6 6 5 4 4 4 4 4 4 5
5 5 6 6 6 5 4 6 10 13 12 9 10 13 12 10 8 7 8 8 9 9 8 8 8 8 8 8 7 6 6 5 5 5 5 5 4 3 3 3 3 2 3 3
7 7 7 6 6 6 7 8 10 11 10 8 10 11 10 8 7 7 7 7 7 7 7 7 7 7 7 7 7 6 5 5 4 4 5 5 5 4 3 2 1 1 1 1
8 9 9 8 7 7 8 9 9 10 8 8 10 10 9 8 7 7 6 6 5 5 6 6 6 7 7 7 7 6 5 4 4 5 6 7 6 6 4 2 1 1 0 0
6 7 8 7 7 7 7 7 8 9 8 7 9 9 8 7 6 5 5 5 4 4 5 6 6 7 7 7 7 6 5 4 4 5 7 8 8 7 5 3 2 1 1 0
3 4 4 5 6 5 5 5 6 7 6 6 7 8 7 6 5 5 4 4 4 4 5 5 6 6 6 6 6 5 5 5 4 5 7 8 7 7 5 4 3 2 1 1
3 3 3 4 4 4 3 4 4 5 5 5 6 6 6 5 5 4 4 4 4 5 5 5 5 5 5 5 5 4 4 4 4 5 6 6 5 5 5 4 3 2 1 1
3 3 3 3 3 3 3 4 4 5 5 5 5 5 5 5 5 5 4 4 5 5 5 5 5 5 5 4 4 4 4 4 4 5 5 4 4 4 4 3 3 2 1 1
3 3 3 4 4 4 4 4 5 5 6 5 5 5 5 5 5 5 5 5 5 5 5 5 5 4 4 4 4 4 4 4 4 4 4 3 3 3 3 2 2 2 1 1
3 3 3 4 4 4 3 3 4 5 5 5 4 4 4 4 4 5 5 5 5 4 4 4 3 3 4 4 4 4 4 4 3 3 2 2 2 2 2 2 2 2 2 1
4 4 3 3 4 3 2 2 3 3 4 4 4 4 3 3 4 4 4 4 4 4 3 3 2 2 3 3 2 2 3 2 2 1 1 1 1 1 1 1 1 2 1 1
5 5 4 3 3 3 2 2 2 3 3 3 3 3 2 3 3 3 3 3 3 3 2 1 1 1 1 1 1 1 1 1 1 1 1 1 1 1 1 1 1 1 1 1
5 4 4 3 3 2 2 2 2 3 3 3 2 2 2 2 2 2 3 2 2 1 1 1 1 1 0 0 0 0 0 0 0 0 1 1 2 2 2 1 1 1 1 1
5 5 4 3 3 2 2 2 2 3 3 3 2 2 2 2 2 2 2 1 1 0 0 0 0 0 0 0 0 0 0 0 0 0 1 1 2 2 2 2 2 2 1 1
6 5 4 4 3 2 2 2 2 2 2 3 2 2 2 2 2 1 1 0 0 0 0 0 0 0 0 0 0 0 0 0 0 0 0 1 1 1 1 1 2 2 2 2
5 5 4 3 2 2 2 1 1 1 1 2 2 1 1 1 1 1 1 0 0 0 0 0 0 0 0 0 0 0 0 0 0 0 0 0 0 0 1 1 1 2 2 2
4 3 3 2 2 1 1 1 1 1 1 1 1 1 1 1 1 1 1 0 0 0 0 0 0 0 0 0 0 0 0 0 0 0 0 0 0 1 1 1 1 2 2 2
3 3 2 2 1 1 1 1 1 1 0 0 1 1 1 1 1 1 1 1 1 1 1 1 0 0 0 0 0 0 0 0 1 1 1 1 1 1 1 1 2 2 2 2

GEFSNGP_con_maxscp_240.txt.gz
SCP
0 0 1 1 0 0 0 0 1 1 2 4 6 7 7 8 8 7 6 5 5 5 5 5 7 9 9 9 8 7 5 4 3 4 3 3 4 4 4 3 3 2 2 2
0 0 0 0 1 1 1 1 1 2 3 5 7 7 7 7 7 6 6 5 5 5 5 6 8 9 10 10 9 8 6 4 4 4 4 4 4 4 4 4 3 2 2 3
0 0 0 0 1 1 2 3 3 4 6 7 8 7 6 6 6 5 5 5 5 5 5 6 8 9 11 11 10 9 7 5 5 5 5 5 4 4 4 5 4 4 4 4
0 0 0 0 1 2 4 5 6 7 8 9 9 8 7 6 6 6 6 6 5 5 6 6 7 8 9 9 9 8 6 5 6 6 6 6 6 5 5 5 5 5 5 5
0 0 0 1 1 2 4 5 6 8 10 10 10 9 8 7 6 6 6 7 7 6 6 5 6 7 7 7 7 6 6 6 6 7 7 7 7 6 5 5 5 4 4 4
0 0 1 1 1 2 2 4 5 8 10 11 9 8 8 8 7 7 8 8 7 7 6 5 5 5 5 5 5 5 5 6 7 8 8 8 8 7 6 6 5 4 3 2
0 1 1 2 2 2 2 3 6 9 12 13 10 8 9 10 11 11 11 10 8 7 6 6 5 5 4 4 4 5 6 7 9 9 9 9 8 8 7 7 6 4 2 1
0 1 1 3 3 3 2 4 7 12 15 15 13 12 13 15 16 18 18 14 11 10 9 7 6 5 4 4 4 5 6 8 9 9 9 9 9 8 7 6 5 3 2 1
1 2 2 4 5 4 4 5 9 14 16 17 17 17 16 17 20 23 22 19 15 13 11 9 7 5 5 4 4 5 6 7 7 7 8 9 8 7 6 5 4 3 2 2
2 3 3 4 5 5 5 7 12 14 15 17 18 17 16 18 21 23 22 18 15 13 11 8 6 5 4 4 5 5 5 5 4 4 5 7 7 6 5 4 4 3 2 2
2 3 3 4 4 4 5 8 12 13 12 13 14 15 17 19 21 21 18 14 12 11 9 6 5 4 4 4 5 5 5 3 2 2 4 5 6 5 4 3 3 3 2 2
2 2 2 3 4 5 6 8 10 10 9 9 10 13 17 20 21 19 15 11 11 11 9 8 7 6 5 5 5 5 4 3 2 2 2 4 5 4 3 2 2 1 1 1
2 2 2 3 5 6 7 7 8 8 8 9 11 12 15 19 22 20 14 10 9 10 10 10 10 9 8 7 6 6 5 4 2 2 2 3 3 3 2 1 1 1 1 1
3 2 2 3 4 6 7 7 7 7 9 11 13 13 14 18 22 19 13 9 7 8 8 9 11 11 11 9 8 7 7 5 2 2 2 3 3 3 2 2 1 1 1 0
4 3 3 3 3 4 5 6 6 7 9 11 12 11 11 14 17 14 10 8 6 6 6 7 8 9 10 10 9 9 7 4 2 2 2 2 3 3 2 2 2 1 1 1
4 4 4 4 3 4 4 4 4 5 6 7 7 6 6 8 8 7 6 6 5 5 5 5 5 6 7 8 8 8 6 4 2 2 2 2 2 2 2 2 2 2 2 2
4 4 4 4 4 4 4 3 3 3 3 3 3 3 3 3 3 3 3 4 4 4 4 4 5 5 5 6 6 6 5 3 2 2 2 2 2 2 2 2 2 3 3 3
3 3 4 4 4 4 4 3 2 2 2 2 1 2 2 2 2 2 2 2 3 4 4 4 4 3 3 3 3 3 3 2 2 2 2 2 2 2 2 2 2 4 4 3
2 2 3 3 3 3 3 2 2 2 1 1 1 1 1 1 1 1 1 1 2 3 3 3 3 2 2 2 1 1 1 1 1 2 2 2 1 1 1 1 2 4 4 4
1 1 1 2 2 1 1 1 1 1 1 1 1 1 1 1 0 0 1 1 2 2 2 2 2 1 1 1 1 1 1 1 1 1 1 1 1 1 0 1 2 3 3 3
1 1 1 1 1 1 1 1 1 1 1 1 1 1 1 1 1 1 1 1 1 1 1 2 1 1 0 0 0 0 0 0 0 0 0 0 0 0 0 0 1 2 2 2
2 2 1 1 0 0 0 1 1 1 1 1 1 1 1 1 1 1 1 1 1 0 1 1 1 0 0 0 0 0 0 0 0 0 0 0 0 0 0 0 1 1 1 1
1 1 1 1 1 0 0 1 1 1 0 1 1 1 1 1 1 1 1 0 0 0 0 0 0 0 0 0 0 0 0 0 0 0 0 0 0 0 0 0 0 0 0 0
2 2 2 2 1 1 1 1 1 1 0 0 1 1 1 1 0 0 0 0 0 0 0 0 0 0 0 0 0 0 0 0 0 0 0 0 0 0 0 0 0 0 0 0
3 3 3 3 2 2 1 1 1 1 0 0 0 0 0 0 0 0 0 0 0 0 0 0 0 0 0 0 0 0 0 0 0 0 0 0 0 0 0 0 0 0 0 0
3 3 3 3 2 2 1 1 1 0 0 0 0 0 0 0 0 0 0 0 0 0 0 0 0 0 0 0 0 0 0 0 0 0 0 0 0 0 0 0 0 0 0 0
2 2 2 2 2 2 1 1 0 0 0 0 0 0 0 0 0 0 0 0 0 0 0 0 0 0 0 0 0 0 0 0 0 0 0 0 0 0 0 0 0 0 0 0

GEFSNGP_con_maxscp_246.txt.gz
SCP
0 0 1 2 2 2 1 0 0 0 0 1 2 2 3 3 3 4 4 5 4 4 4 4 3 3 3 3 3 4 4 4 3 3 2 3 3 3 3 2 2 2 1 1
0 0 1 2 2 2 2 1 1 1 1 2 3 3 3 3 3 4 4 4 4 4 4 3 3 4 4 4 4 4 4 4 4 3 3 3 3 3 2 2 2 2 2 2
0 0 1 1 2 2 2 2 2 2 3 4 4 4 4 4 4 4 4 4 4 4 3 3 4 4 5 5 5 4 4 4 4 4 4 3 3 3 3 3 3 3 3 3
0 0 0 1 1 2 2 2 2 3 4 5 6 6 5 5 4 4 4 4 4 3 3 3 4 6 7 7 5 5 5 5 5 5 4 4 4 4 4 4 4 4 4 4
0 0 0 1 1 1 2 2 2 3 4 5 6 6 6 5 5 4 4 3 3 3 3 4 5 7 7 7 5 5 6 6 6 6 5 4 4 4 5 5 5 5 5 4
0 0 0 1 0 1 1 1 2 2 4 5 6 6 6 6 5 5 4 3 3 3 4 4 5 6 7 6 4 4 5 6 7 6 5 4 4 5 5 5 6 5 5 4
0 0 0 0 0 1 1 1 2 3 4 6 6 6 6 7 6 5 4 3 3 3 3 3 4 5 5 4 3 3 3 4 5 5 5 4 5 6 6 6 6 6 5 4
0 0 0 0 1 1 1 1 3 4 4 5 6 7 8 9 7 5 4 4 4 3 2 2 3 3 3 3 2 2 2 3 4 4 4 4 5 6 6 7 7 6 5 3
0 0 1 1 1 1 1 2 4 5 4 5 6 8 10 10 8 5 5 5 4 4 3 2 2 3 3 3 3 3 3 3 3 3 3 3 4 5 6 6 6 5 4 3
1 1 1 1 1 1 1 2 5 6 5 5 7 10 12 11 8 5 5 5 5 4 3 3 3 4 4 4 4 4 3 2 2 2 2 2 2 3 4 4 4 4 3 3
1 1 1 1 1 2 2 3 5 5 5 7 9 12 12 10 6 5 5 4 4 4 4 3 3 3 4 3 3 3 3 2 2 2 2 2 2 2 2 3 3 3 3 2
1 1 1 1 1 2 3 4 5 5 6 8 11 13 12 8 5 4 4 4 4 4 4 4 4 3 3 4 4 3 2 2 2 2 2 2 2 1 1 2 2 1 1 1
1 1 1 1 1 2 3 5 6 7 8 10 12 12 10 7 5 4 4 4 3 4 4 5 5 5 5 5 5 4 3 2 1 1 1 1 1 1 1 1 1 1 0 0
0 1 1 1 1 2 3 5 7 9 10 10 10 9 7 5 4 4 3 3 3 3 4 5 6 7 7 6 5 4 3 2 2 1 1 1 1 1 1 1 1 0 0 0
1 1 1 1 1 2 3 5 6 7 8 8 7 5 4 4 4 3 2 2 2 2 3 5 6 7 7 6 5 3 3 2 2 1 1 1 1 1 1 1 1 1 0 0
1 1 1 2 2 2 3 3 4 4 4 4 3 3 3 3 3 2 1 1 1 2 3 4 5 5 5 4 4 3 3 2 2 1 1 1 1 1 1 1 1 1 1 0
1 1 1 2 2 2 2 2 2 2 2 2 2 2 2 2 2 1 1 1 1 1 2 3 3 4 3 3 3 3 3 2 1 1 1 1 1 1 1 1 1 1 1 1
1 1 1 2 2 2 2 2 2 2 2 2 2 2 2 2 1 1 0 0 0 1 1 2 2 2 3 3 3 3 2 2 1 1 1 1 1 1 1 1 1 1 1 1
1 1 1 2 2 2 2 2 1 1 2 2 3 3 3 2 1 1 0 0 0 0 0 1 1 2 2 2 2 3 2 2 1 1 1 1 1 1 1 1 1 1 1 1
1 1 2 3 3 3 2 2 1 1 2 3 3 3 3 2 1 1 0 0 0 0 0 0 1 1 1 1 1 2 2 2 2 1 1 1 1 1 1 1 1 1 1 1
2 2 4 5 4 2 2 2 2 2 3 4 3 3 2 2 1 1 0 0 0 0 0 0 1 1 1 1 1 1 2 2 2 1 1 0 0 0 0 0 0 0 0 0
2 2 5 7 5 2 2 1 2 3 3 3 3 3 2 2 1 1 0 0 0 0 0 1 1 1 1 1 1 1 1 1 1 1 0 0 0 0 0 0 0 0 0 0
1 1 3 4 3 1 1 1 2 2 3 3 2 2 1 1 1 0 0 0 0 0 1 1 1 0 0 1 1 1 1 0 0 0 0 0 0 0 0 0 0 0 0 0
0 0 1 1 1 1 1 1 1 2 2 2 2 1 1 1 0 0 0 0 0 0 1 1 0 0 0 1 1 0 0 0 0 0 0 0 0 0 0 0 0 0 0 0
0 0 0 0 0 0 0 1 1 1 1 1 1 1 1 1 1 0 0 0 0 0 0 0 0 0 0 0 0 0 0 0 0 0 0 0 0 0 0 0 0 0 0 0
0 0 0 0 0 0 0 0 0 1 1 1 0 0 0 1 1 0 0 0 0 0 0 0 0 0 0 0 0 0 0 0 0 0 0 0 0 0 0 0 0 0 0 0
0 0 0 0 0 0 0 0 0 1 1 1 0 0 0 1 0 0 0 0 0 0 0 0 0 0 0 0 0 0 0 0 0 0 0 0 0 0 0 0 0 0 0 0

GEFSNGP_con_maxscp_252.txt.gz
SCP
1 0 0 0 0 0 0 0 0 1 2 3 4 5 6 6 5 4 4 4 4 5 5 6 6 7 8 7 5 4 4 4 3 3 3 2 2 3 3 3 3 4 5 5
1 1 0 1 1 1 1 1 1 1 2 3 4 4 5 6 7 6 6 6 6 6 6 6 6 6 6 6 5 5 4 4 3 3 3 3 3 3 3 4 4 4 5 6
1 1 1 1 1 1 1 2 2 2 3 4 4 4 5 7 8 8 8 8 8 7 7 7 7 6 5 5 6 6 6 5 4 3 3 3 3 3 4 4 4 5 6 6
0 0 1 1 1 2 2 3 3 4 4 5 5 6 6 7 8 9 9 9 9 9 9 10 9 7 7 7 7 8 8 7 5 4 4 4 4 4 4 4 5 5 6 6
0 0 1 1 2 2 2 3 4 5 4 4 5 5 6 6 7 8 8 9 9 10 10 10 9 8 7 7 8 8 9 8 6 5 5 5 5 5 6 6 5 5 5 5
0 0 1 1 2 2 2 3 4 4 4 3 3 4 4 4 6 7 8 8 9 9 9 8 7 6 6 7 7 7 7 6 5 5 6 6 6 7 7 6 6 5 5 5
0 0 1 2 2 2 2 3 3 3 3 3 3 3 3 4 5 7 7 7 8 8 7 6 5 5 6 7 7 7 7 6 5 5 6 6 7 8 8 7 6 6 6 6
0 1 1 3 4 4 4 3 3 3 3 3 3 3 4 5 6 6 6 5 6 6 6 5 5 5 6 7 8 9 9 8 7 6 5 5 7 8 9 9 8 7 8 8
1 1 2 4 5 5 4 3 3 4 4 4 4 4 5 6 6 6 5 5 5 5 6 6 5 5 6 7 9 11 12 10 8 6 5 5 6 6 7 8 8 8 8 8
2 2 2 4 5 5 4 3 3 5 5 5 4 4 5 6 5 5 5 4 4 6 6 7 6 6 6 7 9 12 13 12 10 8 7 6 5 5 5 6 6 6 6 6
3 2 3 4 4 4 3 2 3 4 5 5 4 5 5 5 5 6 6 5 5 5 6 7 7 7 6 7 9 11 13 12 11 10 8 6 5 4 4 4 4 3 3 3
3 3 3 3 3 3 3 3 3 3 4 4 4 5 6 6 6 6 6 7 6 5 5 5 6 6 7 8 9 10 10 10 9 8 7 5 4 4 3 2 2 1 1 1
4 4 3 3 3 3 3 4 4 4 4 5 5 6 6 6 6 6 6 8 8 6 5 4 4 5 6 7 8 9 8 8 7 7 6 5 5 4 3 2 1 1 1 1
4 4 4 3 3 4 4 4 4 4 5 6 7 7 7 7 6 5 5 7 9 8 6 4 3 4 6 7 8 9 10 9 9 9 8 7 5 4 4 3 2 2 1 1
3 3 3 3 3 3 3 3 3 4 4 5 7 7 7 6 5 5 5 5 7 9 7 5 3 4 5 6 8 10 11 11 10 10 9 7 6 5 4 4 3 3 3 2
3 3 3 3 3 2 2 2 3 4 4 6 6 6 5 5 5 5 4 4 5 7 7 5 3 3 4 5 7 10 10 9 8 7 7 6 5 5 5 5 5 4 4 3
3 2 2 2 2 2 2 2 3 5 6 6 6 4 4 4 4 5 5 4 4 5 5 4 3 3 3 4 6 7 7 6 5 4 4 4 5 5 5 6 6 5 4 3
2 2 2 2 2 2 2 3 4 6 7 6 5 4 3 4 5 5 5 5 4 4 4 3 2 2 2 3 4 4 4 4 4 3 4 4 4 4 5 6 6 5 3 2
2 2 2 2 2 2 3 3 5 6 6 5 4 4 3 4 5 6 6 5 5 4 4 3 2 1 2 2 2 2 3 4 4 4 3 3 3 3 4 4 4 4 2 1
1 1 1 1 2 2 2 3 4 4 4 3 3 3 2 3 4 6 6 6 5 4 4 3 2 1 1 1 1 1 2 3 4 4 3 3 2 2 2 3 3 2 1 1
1 1 1 2 2 2 2 2 2 2 2 2 2 2 2 3 4 5 6 6 5 5 3 2 1 1 1 1 1 1 2 2 3 4 3 3 2 2 2 1 1 1 1 1
2 1 2 2 3 2 2 2 1 1 1 1 1 1 2 2 3 5 6 6 6 4 3 2 1 1 1 1 1 1 2 2 3 3 3 3 2 1 1 1 1 0 0 1
2 2 2 3 3 3 2 2 1 1 1 1 1 2 2 3 4 5 6 6 5 3 2 2 1 0 0 0 0 1 2 3 3 3 3 2 1 1 0 0 0 0 0 1
3 3 3 3 3 3 2 2 2 1 1 1 1 2 3 4 5 6 6 5 3 2 1 1 0 0 0 0 1 1 2 3 3 2 2 2 1 0 0 0 0 0 0 1
4 4 4 3 3 2 2 2 2 1 1 1 1 2 4 5 7 8 8 6 2 1 1 1 0 0 0 1 1 1 2 2 2 2 1 1 1 0 0 0 0 0 0 0
3 3 3 3 3 3 2 2 2 2 2 2 2 3 4 6 7 8 8 5 2 2 2 1 1 0 1 1 1 1 1 2 2 2 1 1 1 0 0 0 0 0 0 0
1 2 3 3 3 3 3 2 2 2 2 2 2 3 5 6 7 7 6 4 2 2 2 2 1 1 1 1 1 1 1 2 2 2 2 1 1 0 0 0 0 0 0 0